Location: *
(28.3744°N, 81.5492°W)
Time: 03:10:41
(UTC+00:00)

Cosmos 1939 Rocket - Pass Details

Date: 15 June 2025
Orbit: 496 x 535 km, 97.5° (Epoch: 11 July)

Event Time Altitude Azimuth Distance (km) Brightness Sun altitude
Rises 09:41:17 0° 14° (NNE) 2,596 7.1 -9.8°
Reaches altitude 10° 09:43:22 10° 17° (NNE) 1,714 6.1 -9.4°
Maximum altitude 09:47:03 69° 101° (E) 544 3.0 -8.8°
Drops below altitude 10° 09:50:45 10° 185° (S) 1,725 5.0 -8.1°
Sets 09:52:51 0° 187° (S) 2,614 5.9 -7.7°
